Torna al catalogo

STARLINK-4334

AttivoComunicazioniSSO
NORAD 53665·PAYLOAD·🇺🇸 United States

Lanciato Aug 31, 2022 da Vandenberg Space Force Base

Loading…

Prossimi Passaggi (prossime 24 ore)

TLE

AggiornatoSource: CelesTrak SupGP

Epoca: Sep 14, 2026, 20:54 UTC

1 53665C 22105T   26257.87131944  .00568960  00000+0  13797-1 0  2572
2 53665  97.5168 146.2567 0001535  94.2149 320.8168 15.40813418    11

Traccia STARLINK-4334 in tempo reale con AllMySat

Download on the App Store